CZ-6A DEB, 54936

Orbit data source: Space-Track

CZ-6A DEB, 54936 is space debris in SSO originally from a launch on Fri, 11 Nov 2022 UTC launched from the Taiyaun Space Center, China (TSC). Debris objects in space refer to the collection of defunct objects orbiting the Earth. Examples of debris include non-operational satellites, rocket bodies, and fragments generated from explosions, collisions, or faulty payload assembly.

Loading next visibility...
Identifier
54936, 2022-151RZ
Orbit
SSO
Country
Flag of CNCN / PRC
Related business
Manufacturer
SAST
Mission
Spacecraft
Bus & Motor
Unknown
Mass
Unknown
Launch date (UTC)
2022-11-11 (4 years ago)
Launch vehicle
Unknown
Launch site
Taiyaun Space Center, China (TSC)
Object type
Payload
Rocket body
Debris
Shape & HBR
Unknown shape, 0.1 m
Radar Cross Section
Medium (>0.1 m² and <1 m²)

Expand to show TLE details & history
Last TLE update: 17 hours ago

TLE from 17 hours ago
0 CZ-6A DEB
1 54936U 22151RZ  26263.33305647  .00005791  00000-0  96360-3 0  9997
2 54936  99.1257  46.7046 0088819  69.5459 291.5251 14.67915872203472
Epoch: 2026-09-20T07:59Z
TLE epoch observation values (Epoch: 2026-09-20T07:59:36.079Z)
Latitude
-0.00002°
Longitude
-72.42447°
Altitude
648.213 km
Speed
7.546 km/s
True Right ascension
03h 06m 49s
True Declination
0° 00' 00"
Sunlit
Object was in full shadow at epoch
Visualization orbit readout
Latitude
Unknown
Longitude
Unknown
Altitude
Unknown
Speed
Unknown
Apparent Right ascension
Unknown
Apparent Declination
Unknown
Sunlit
N/A
Visualization observer readout
Local Sidereal Time
18:17:29
Azimuth
Unknown
Elevation
Unknown
Doppler factor
Unknown
Orbital elements
Apogee altitude
727.4 km
Perigee altitude
602.29 km
Semi-major axis
7,042.982 km
Eccentricity
0.00888
Inclination
99.1257°
RAAN
46.7046°
Arg. of periapsis
69.5459°
True anomaly
290.57446°
Mean anomaly
291.5251°
Eccentric anomaly
291.05017°
Mean motion
3.67205 °/min
Orbital period
98.04 mins
BSTAR
0.0009636
Loading maneuver chart data...
Computing Atmospheric mass density...

Documentation

Showing up to 5 results
|